STARLINK-11640 [DTC] (63314 NORAD) Tracking and Keplerian Element Data

This shows tracking and keplerian element data for the satellite.

Feedback or suggestion? Click here.




ElementValue
Catalog63314
NameSTARLINK-11640 [DTC]
Epoch Orbit4466
Epoch Day354.13049164
Epoch Year2025
RAAN24.2106
Inclination43
Eccentricity0.0001589
Argument of Perigee262.5296
Mean Anonmoly97.5391
Mean Motion15.7086687
Decay Rate0.00143959
L11 63314U 25057H 25354.13049164 .00143959 00000+0 11048-2 0 9999
L22 63314 43.0000 24.2106 0001589 262.5296 97.5391 15.70866870 44668



Live tracking and technical data element details for STARLINK-11640 [DTC] (NORAD 63314). STARLINK-11640 [DTC] can be tracked NOW for your location showing map with azimuth and elevation plus other details from your city location.







IsCatalogInMostPopularTable: catalog: 63314, numindb: 2
Update: records affected: 1



GetName: 63314 STARLINK-11640 [DTC]

Hit Count: updated at: Sat, 07 Feb 2026 08:42:34 GMT